Weather History for Mustang Island A85A, TX

Change the Weather History Date:

Thursday, February 27, 2014

  Actual Average Record
Temperature  
Mean Temperature 52 °F -  
Max Temperature 59 °F - - ()
Min Temperature 46 °F - - ()
Degree Days  
Heating Degree Days 12    
Growing Degree Days 2 (Base 50)    
Moisture  
Dew Point 42 °F    
Average Humidity 68    
Maximum Humidity 82    
Minimum Humidity 58    
Precipitation  
Precipitation 0.00 in - - ()
Sea Level Pressure  
Sea Level Pressure 30.08 in    
Wind  
Wind Speed 15 mph (NE)    
Max Wind Speed 22 mph    
Max Gust Speed 28 mph    
Visibility 10 miles    
Events      
T = Trace of Precipitation, MM = Missing Value Source: NWS Daily Summary

Daily Weather History Graph

Daily Weather History Graph

Search for Another Location

Airport:

Trip Planner

Search our weather history database for the weather conditions in past years. The results will help you decide how hot, cold, wet, or windy it might be!

Date:

Astronomy

Feb. 27, 2014 Rise Set
Actual Time 6:51 AM CST 6:24 PM CST
Civil Twilight 6:27 AM CST 6:47 PM CST
Nautical Twilight 6:00 AM CST 7:14 PM CST
Astronomical Twilight 5:33 AM CST 7:42 PM CST
Moon 5:17 AM CST (2/27) 4:55 PM CST (2/27)
Length of Visible Light 12h 20m
Length of Day
11h 32m
Waning Crescent, 4% of the Moon is Illuminated
Feb 27
Waning Crescent
Mar 1
New
Mar 8
First Quarter
Mar 16
Full
Mar 23
Last Quarter

Hourly Weather History & Observations

Time (CST) Temp. Windchill Dew Point Humidity Pressure Visibility Wind Dir Wind Speed Gust Speed Precip Events Conditions
12:15 AM 46.4 °F 38.5 °F 41.0 °F 81% 30.13 in 10.0 mi North 21.9 mph - N/A   Overcast
12:35 AM 46.4 °F 39.0 °F 41.0 °F 81% 30.13 in 10.0 mi North 19.6 mph 27.6 mph N/A   Mostly Cloudy
12:55 AM 48.2 °F - 42.8 °F 82% 30.12 in 10.0 mi North 21.9 mph - N/A   Mostly Cloudy
1:15 AM 48.2 °F - 42.8 °F 82% 30.12 in 10.0 mi North 19.6 mph 26.5 mph N/A   Mostly Cloudy
1:35 AM 48.2 °F - 41.0 °F 76% 30.12 in 10.0 mi North 18.4 mph 26.5 mph N/A   Mostly Cloudy
1:55 AM 46.4 °F 39.0 °F 41.0 °F 81% 30.12 in 10.0 mi North 19.6 mph - N/A   Mostly Cloudy
2:15 AM 46.4 °F 39.5 °F 41.0 °F 81% 30.11 in 10.0 mi North 17.3 mph 26.5 mph N/A   Mostly Cloudy
2:35 AM 46.4 °F 39.2 °F 41.0 °F 81% 30.12 in 10.0 mi North 18.4 mph - N/A   Mostly Cloudy
2:55 AM 46.4 °F 39.5 °F 41.0 °F 81% 30.11 in 10.0 mi North 17.3 mph - N/A   Overcast
3:15 AM 48.2 °F - 41.0 °F 76% 30.10 in 10.0 mi North 19.6 mph - N/A   Mostly Cloudy
3:35 AM 46.4 °F 39.0 °F 39.2 °F 76% 30.09 in 10.0 mi North 19.6 mph 26.5 mph N/A   Mostly Cloudy
3:55 AM 46.4 °F 39.2 °F 39.2 °F 76% 30.09 in 10.0 mi North 18.4 mph - N/A   Mostly Cloudy
4:15 AM 46.4 °F 39.0 °F 39.2 °F 76% 30.09 in 10.0 mi North 19.6 mph 27.6 mph N/A   Mostly Cloudy
4:35 AM 46.4 °F 38.7 °F 39.2 °F 76% 30.09 in 10.0 mi North 20.7 mph 26.5 mph N/A   Scattered Clouds
4:55 AM 46.4 °F 38.7 °F 37.4 °F 71% 30.09 in 10.0 mi NNE 20.7 mph 27.6 mph N/A   Partly Cloudy
5:15 AM 46.4 °F 39.5 °F 37.4 °F 71% 30.10 in 10.0 mi North 17.3 mph 26.5 mph N/A   Scattered Clouds
5:35 AM 46.4 °F 39.2 °F 39.2 °F 76% 30.12 in 10.0 mi North 18.4 mph - N/A   Scattered Clouds
5:55 AM 46.4 °F 39.8 °F 37.4 °F 71% 30.13 in 10.0 mi NNE 16.1 mph 23.0 mph N/A   Scattered Clouds
6:15 AM 46.4 °F 39.8 °F 39.2 °F 76% 30.13 in 10.0 mi North 16.1 mph 21.9 mph N/A   Scattered Clouds
6:35 AM 48.2 °F - 39.2 °F 71% 30.13 in 10.0 mi North 18.4 mph - N/A   Mostly Cloudy
6:55 AM 48.2 °F - 39.2 °F 71% 30.14 in 9.0 mi NNE 12.7 mph 19.6 mph N/A   Mostly Cloudy
7:15 AM 48.2 °F - 39.2 °F 71% 30.15 in 10.0 mi NNE 12.7 mph 19.6 mph N/A   Overcast
7:35 AM 48.2 °F - 37.4 °F 66% 30.15 in 10.0 mi NNE 17.3 mph - N/A   Overcast
7:55 AM 48.2 °F - 37.4 °F 66% 30.16 in 10.0 mi North 16.1 mph - N/A   Scattered Clouds
8:15 AM 48.2 °F - 37.4 °F 66% 30.16 in 10.0 mi NNE 15.0 mph 23.0 mph N/A   Scattered Clouds
8:35 AM 48.2 °F - 39.2 °F 71% 30.16 in 10.0 mi NNE 17.3 mph - N/A   Scattered Clouds
8:55 AM 50.0 °F - 39.2 °F 66% 30.16 in 9.0 mi NNE 16.1 mph - N/A   Scattered Clouds
9:15 AM 50.0 °F - 37.4 °F 62% 30.17 in 10.0 mi NNE 12.7 mph - N/A   Scattered Clouds
9:35 AM 50.0 °F - 39.2 °F 66% 30.18 in 10.0 mi NNE 12.7 mph 20.7 mph N/A   Scattered Clouds
9:55 AM 50.0 °F - 39.2 °F 66% 30.18 in 10.0 mi NNE 13.8 mph - N/A   Mostly Cloudy
10:15 AM 50.0 °F - 37.4 °F 62% 30.18 in 10.0 mi North 13.8 mph - N/A   Scattered Clouds
10:35 AM 50.0 °F - 37.4 °F 62% 30.18 in 10.0 mi NNE 10.4 mph 18.4 mph N/A   Scattered Clouds
10:55 AM 51.8 °F - 39.2 °F 62% 30.18 in 10.0 mi NNE 13.8 mph - N/A   Partly Cloudy
11:15 AM 51.8 °F - 39.2 °F 62% 30.17 in 10.0 mi North 12.7 mph - N/A   Scattered Clouds
11:35 AM 51.8 °F - 39.2 °F 62% 30.17 in 10.0 mi NNE 10.4 mph 18.4 mph N/A   Scattered Clouds
11:55 AM 51.8 °F - 39.2 °F 62% 30.16 in 10.0 mi NNE 13.8 mph - N/A   Scattered Clouds
12:15 PM 53.6 °F - 39.2 °F 58% 30.15 in 10.0 mi NNE 11.5 mph - N/A   Partly Cloudy
12:35 PM 51.8 °F - 39.2 °F 62% 30.14 in 10.0 mi NE 9.2 mph 16.1 mph N/A   Partly Cloudy
12:55 PM 53.6 °F - 41.0 °F 62% 30.12 in 10.0 mi NNE 11.5 mph - N/A   Partly Cloudy
1:15 PM 53.6 °F - 41.0 °F 62% 30.11 in 10.0 mi NNE 9.2 mph 17.3 mph N/A   Partly Cloudy
1:35 PM 53.6 °F - 41.0 °F 62% 30.10 in 10.0 mi Variable 6.9 mph 15.0 mph N/A   Partly Cloudy
1:55 PM 53.6 °F - 41.0 °F 62% 30.09 in 10.0 mi Variable 6.9 mph 15.0 mph N/A   Partly Cloudy
2:15 PM 51.8 °F - 41.0 °F 67% 30.07 in 10.0 mi NNE 10.4 mph 16.1 mph N/A   Partly Cloudy
2:35 PM 53.6 °F - 41.0 °F 62% 30.06 in 10.0 mi NE 6.9 mph 13.8 mph N/A   Clear
2:55 PM 55.4 °F - 42.8 °F 63% 30.05 in 10.0 mi NNE 9.2 mph 15.0 mph N/A   Partly Cloudy
3:15 PM 55.4 °F - 42.8 °F 63% 30.04 in 10.0 mi NE 10.4 mph - N/A   Clear
3:35 PM 55.4 °F - 42.8 °F 63% 30.04 in 9.0 mi NE 8.1 mph 13.8 mph N/A   Partly Cloudy
3:55 PM 55.4 °F - 42.8 °F 63% 30.04 in 9.0 mi Variable 5.8 mph 12.7 mph N/A   Partly Cloudy
4:15 PM 55.4 °F - 41.0 °F 58% 30.03 in 10.0 mi Variable 4.6 mph 12.7 mph N/A   Clear
4:35 PM 55.4 °F - 42.8 °F 63% 30.02 in 10.0 mi Variable 5.8 mph 11.5 mph N/A   Clear
4:55 PM 55.4 °F - 42.8 °F 63% 30.01 in 7.0 mi ENE 6.9 mph - N/A   Clear
5:15 PM 55.4 °F - 42.8 °F 63% 30.01 in 8.0 mi ENE 5.8 mph - N/A   Clear
5:35 PM 57.2 °F - 42.8 °F 59% 30.00 in 7.0 mi Variable 5.8 mph - N/A   Clear
5:55 PM 57.2 °F - 42.8 °F 59% 30.00 in 8.0 mi Variable 6.9 mph - N/A   Clear
6:15 PM 57.2 °F - 44.6 °F 63% 30.00 in 7.0 mi Variable 5.8 mph - N/A   Clear
6:35 PM 55.4 °F - 44.6 °F 67% 30.00 in 10.0 mi East 5.8 mph - N/A   Clear
6:55 PM 55.4 °F - 42.8 °F 63% 30.01 in 10.0 mi ESE 6.9 mph - N/A   Clear
7:15 PM 55.4 °F - 44.6 °F 67% 30.01 in 10.0 mi East 6.9 mph - N/A   Clear
7:35 PM 55.4 °F - 44.6 °F 67% 30.01 in 10.0 mi Variable 5.8 mph - N/A   Clear
7:55 PM 55.4 °F - 44.6 °F 67% 30.01 in 10.0 mi SE 4.6 mph 12.7 mph N/A   Clear
8:15 PM 57.2 °F - 44.6 °F 63% 30.02 in 10.0 mi ESE 8.1 mph - N/A   Clear
8:35 PM 57.2 °F - 44.6 °F 63% 30.02 in 10.0 mi ESE 4.6 mph 11.5 mph N/A   Clear
8:55 PM 57.2 °F - 44.6 °F 63% 30.02 in 10.0 mi SE 6.9 mph - N/A   Clear
9:15 PM 57.2 °F - 46.4 °F 67% 30.01 in 10.0 mi SE 11.5 mph - N/A   Clear
9:35 PM 57.2 °F - 46.4 °F 67% 30.01 in 10.0 mi SE 6.9 mph 13.8 mph N/A   Partly Cloudy
9:55 PM 57.2 °F - 46.4 °F 67% 30.00 in 10.0 mi SSE 9.2 mph 15.0 mph N/A   Partly Cloudy
10:15 PM 57.2 °F - 48.2 °F 72% 29.99 in 10.0 mi SE 9.2 mph - N/A   Partly Cloudy
10:35 PM 59.0 °F - 48.2 °F 67% 29.99 in 10.0 mi SE 9.2 mph 17.3 mph N/A   Partly Cloudy
10:55 PM 59.0 °F - 48.2 °F 67% 29.99 in 10.0 mi SE 12.7 mph - N/A   Partly Cloudy
11:15 PM 59.0 °F - 48.2 °F 67% 29.98 in - SSE 12.7 mph - N/A   Partly Cloudy
11:35 PM 59.0 °F - 48.2 °F 67% 29.97 in 10.0 mi SSE 12.7 mph 19.6 mph N/A   Partly Cloudy
11:55 PM 59.0 °F - 48.2 °F 67% 29.97 in 10.0 mi SSE 10.4 mph 19.6 mph N/A   Scattered Clouds